Location: Newark
(49.8900°N, 17.8822°E)
Time: 08:21:09
(UTC+00:00)

Envisat - Pass Details

Date: 26 August 2019
Orbit: 764 x 766 km, 98.1° (Epoch: 19 September)

Event Time Altitude Azimuth Distance (km) Brightness Sun altitude
Rises 18:12:17 0° 207° (SSW) 3,222 6.3 -4.9°
Reaches altitude 10° 18:15:13 10° 225° (SW) 2,301 5.8 -5.3°
Maximum altitude 18:18:49 19° 271° (W) 1,748 6.0 -5.8°
Drops below altitude 10° 18:22:27 10° 316° (NW) 2,313 6.8 -6.4°
Sets 18:25:25 0° 334° (NNW) 3,245 7.1 -6.8°
